| time (UTC) | temp F | wind direction | speed knots | gust knots | rain 1hr in | rain 24hr in | rain mn in | humidity % | barometer mb |
| 20260505153018 | 77 | 245 | 7.0 | 13.0 | 0.00 | 0.00 | 0.00 | 44 | 1012.5 |
| 20260505151516 | 77 | 263 | 3.5 | 8.7 | 0.00 | 0.00 | 0.00 | 47 | 1012.5 |
| 20260505124548 | 66 | 281 | 3.5 | 8.7 | 0.00 | 0.00 | 0.00 | 59 | 1013.8 |
| 20260505123041 | 65 | 264 | 2.6 | 8.7 | 0.00 | 0.00 | 0.00 | 61 | 1013.7 |
| 20260505121536 | 64 | 307 | 2.6 | 9.6 | 0.00 | 0.00 | 0.00 | 62 | 1013.7 |
| 20260505120045 | 63 | 263 | 0.9 | 6.1 | 0.00 | 0.00 | 0.00 | 65 | 1013.6 |
| 20260505114532 | 62 | 270 | 0.9 | 5.2 | 0.00 | 0.00 | 0.00 | 68 | 1013.4 |
| 20260505113033 | 60 | 297 | 1.7 | 5.2 | 0.00 | 0.00 | 0.00 | 69 | 1013.2 |
| 20260505111528 | 60 | 264 | 1.7 | 5.2 | 0.00 | 0.00 | 0.00 | 71 | 1013.0 |
| 20260505101521 | 54 | 285 | 0.0 | 0.0 | 0.00 | 0.00 | 0.00 | 77 | 1012.6 |
| 20260505100022 | 55 | 285 | 0.0 | 0.0 | 0.00 | 0.00 | 0.00 | 74 | 1012.4 |
| 20260505094519 | 56 | 285 | 0.0 | 0.9 | 0.00 | 0.00 | 0.00 | 74 | 1012.4 |
| 20260505093017 | 54 | 281 | 0.0 | 0.0 | 0.00 | 0.00 | 0.00 | 77 | 1012.4 |
| 20260505091616 | 55 | 281 | 0.0 | 0.0 | 0.00 | 0.00 | 0.00 | 77 | 1012.2 |
| 20260505090013 | 55 | 281 | 0.0 | 0.0 | 0.00 | 0.00 | 0.00 | 76 | 1012.2 |
| 20260505084532 | 56 | 281 | 0.0 | 0.0 | 0.00 | 0.00 | 0.00 | 74 | 1012.1 |
| 20260505083010 | 56 | 281 | 0.0 | 0.9 | 0.00 | 0.00 | 0.00 | 75 | 1012.1 |
| 20260505081515 | 56 | 281 | 0.0 | 0.0 | 0.00 | 0.00 | 0.00 | 72 | 1012.0 |
| 20260505080005 | 57 | 281 | 0.0 | 0.0 | 0.00 | 0.00 | 0.00 | 69 | 1012.0 |
| 20260505074507 | 58 | 281 | 0.0 | 0.9 | 0.00 | 0.00 | 0.00 | 70 | 1012.0 |
| 20260505073001 | 58 | 281 | 0.0 | 0.9 | 0.00 | 0.00 | 0.00 | 70 | 1011.9 |
| 20260505071600 | 59 | 281 | 0.0 | 0.0 | 0.00 | 0.00 | 0.00 | 67 | 1011.8 |
| 20260505070054 | 61 | 281 | 0.0 | 0.9 | 0.00 | 0.00 | 0.00 | 65 | 1011.9 |
| 20260505064559 | 62 | 281 | 0.0 | 0.0 | 0.00 | 0.00 | 0.00 | 63 | 1011.9 |
| 20260505063055 | 63 | 281 | 0.0 | 2.6 | 0.00 | 0.00 | 0.00 | 62 | 1012.1 |
| 20260505061552 | 63 | 295 | 0.0 | 1.7 | 0.00 | 0.00 | 0.00 | 61 | 1012.2 |
| 20260505060049 | 63 | 290 | 0.0 | 0.9 | 0.00 | 0.00 | 0.00 | 61 | 1012.2 |
| 20260505054549 | 63 | 286 | 0.0 | 1.7 | 0.00 | 0.00 | 0.00 | 60 | 1012.3 |
| 20260505053109 | 64 | 281 | 0.9 | 4.3 | 0.00 | 0.00 | 0.00 | 59 | 1012.2 |
| 20260505051545 | 64 | 283 | 0.9 | 4.3 | 0.00 | 0.00 | 0.00 | 59 | 1012.2 |
| 20260505041542 | 61 | 266 | 0.0 | 2.6 | 0.00 | 0.00 | 0.00 | 61 | 1012.0 |
| 20260505040035 | 61 | 278 | 0.0 | 0.9 | 0.00 | 0.00 | 0.00 | 60 | 1012.0 |
| 20260505034533 | 59 | 277 | 0.0 | 1.7 | 0.00 | 0.00 | 0.00 | 62 | 1012.0 |
| 20260505033033 | 59 | 286 | 0.0 | 0.0 | 0.00 | 0.00 | 0.00 | 60 | 1011.9 |
| 20260505031531 | 60 | 286 | 0.0 | 0.9 | 0.00 | 0.00 | 0.00 | 59 | 1011.9 |
| 20260505030030 | 60 | 280 | 0.0 | 2.6 | 0.00 | 0.00 | 0.00 | 60 | 1011.9 |
| 20260505024529 | 62 | 251 | 0.0 | 0.0 | 0.00 | 0.00 | 0.00 | 57 | 1011.7 |
| 20260505023029 | 63 | 290 | 0.0 | 3.5 | 0.00 | 0.00 | 0.00 | 55 | 1012.0 |
| 20260505021531 | 62 | 291 | 1.7 | 3.5 | 0.00 | 0.00 | 0.00 | 55 | 1012.0 |
| 20260505020028 | 61 | 245 | 0.0 | 2.6 | 0.00 | 0.00 | 0.00 | 58 | 1011.8 |
| 20260505014528 | 61 | 291 | 0.0 | 0.9 | 0.00 | 0.00 | 0.00 | 56 | 1011.8 |
| 20260505013027 | 62 | 259 | 0.0 | 1.7 | 0.00 | 0.00 | 0.00 | 54 | 1011.8 |
| 20260505011545 | 63 | 310 | 0.0 | 0.9 | 0.00 | 0.00 | 0.00 | 52 | 1011.8 |
| 20260505010026 | 64 | 84 | 0.0 | 1.7 | 0.00 | 0.00 | 0.00 | 50 | 1011.5 |
| 20260505004526 | 65 | 80 | 0.9 | 2.6 | 0.00 | 0.00 | 0.00 | 49 | 1011.3 |
| 20260505003025 | 66 | 87 | 0.0 | 1.7 | 0.00 | 0.00 | 0.00 | 47 | 1011.1 |
| 20260505001524 | 67 | 276 | 0.0 | 1.7 | 0.00 | 0.00 | 0.00 | 45 | 1011.0 |
| 20260505000031 | 68 | 297 | 0.0 | 4.3 | 0.00 | 0.00 | 0.00 | 44 | 1011.0 |
| 20260504234528 | 69 | 255 | 0.9 | 4.3 | 0.00 | 0.00 | 0.00 | 42 | 1010.9 |
| 20260504233022 | 70 | 274 | 0.9 | 5.2 | 0.00 | 0.00 | 0.00 | 41 | 1010.9 |
| 20260504231520 | 71 | 225 | 0.9 | 5.2 | 0.00 | 0.00 | 0.00 | 41 | 1010.9 |
| 20260504230019 | 72 | 251 | 0.9 | 7.0 | 0.00 | 0.00 | 0.00 | 40 | 1011.0 |
| 20260504224518 | 72 | 236 | 0.9 | 4.3 | 0.00 | 0.00 | 0.00 | 41 | 1011.2 |
| 20260504223023 | 72 | 278 | 1.7 | 10.4 | 0.00 | 0.00 | 0.00 | 39 | 1011.2 |
| 20260504221516 | 73 | 265 | 1.7 | 10.4 | 0.00 | 0.00 | 0.00 | 38 | 1011.2 |
| 20260504220015 | 73 | 268 | 2.6 | 12.2 | 0.00 | 0.00 | 0.00 | 39 | 1011.3 |
| 20260504214514 | 73 | 309 | 1.7 | 9.6 | 0.00 | 0.00 | 0.00 | 39 | 1011.3 |
| 20260504213014 | 74 | 304 | 1.7 | 7.0 | 0.00 | 0.00 | 0.00 | 39 | 1011.3 |
| 20260504211512 | 73 | 261 | 2.6 | 8.7 | 0.00 | 0.00 | 0.00 | 37 | 1011.4 |
| 20260504210018 | 73 | 275 | 1.7 | 9.6 | 0.00 | 0.00 | 0.00 | 39 | 1011.3 |
| 20260504204511 | 73 | 269 | 3.5 | 10.4 | 0.00 | 0.00 | 0.00 | 38 | 1011.3 |
| 20260504203010 | 73 | 279 | 1.7 | 7.8 | 0.00 | 0.00 | 0.00 | 37 | 1011.6 |
| 20260504201507 | 73 | 293 | 3.5 | 8.7 | 0.00 | 0.00 | 0.00 | 41 | 1011.7 |
| 20260504200004 | 72 | 304 | 1.7 | 10.4 | 0.00 | 0.00 | 0.00 | 39 | 1012.0 |
| 20260504194503 | 72 | 287 | 4.3 | 13.0 | 0.00 | 0.00 | 0.00 | 37 | 1012.2 |
| 20260504193111 | 72 | 259 | 1.7 | 9.6 | 0.00 | 0.00 | 0.00 | 40 | 1012.5 |
| 20260504193003 | 72 | 61 | 2.6 | 9.6 | 0.00 | 0.00 | 0.00 | 39 | 1012.5 |
| 20260504191612 | 72 | 297 | 3.5 | 8.7 | 0.00 | 0.00 | 0.00 | 40 | 1012.7 |
| 20260504190056 | 72 | 273 | 1.7 | 10.4 | 0.00 | 0.00 | 0.00 | 41 | 1012.8 |
| 20260504184553 | 72 | 233 | 1.7 | 11.3 | 0.00 | 0.00 | 0.00 | 39 | 1013.1 |
| 20260504183053 | 72 | 256 | 6.1 | 13.9 | 0.00 | 0.00 | 0.00 | 40 | 1013.4 |
| 20260504181551 | 72 | 80 | 1.7 | 11.3 | 0.00 | 0.00 | 0.00 | 42 | 1013.6 |
| 20260504180048 | 71 | 244 | 3.5 | 7.8 | 0.00 | 0.00 | 0.00 | 41 | 1013.8 |
| 20260504174542 | 71 | 269 | 4.3 | 9.6 | 0.00 | 0.00 | 0.00 | 43 | 1014.0 |
| 20260504173041 | 70 | 307 | 3.5 | 7.8 | 0.00 | 0.00 | 0.00 | 42 | 1014.1 |
| 20260504171546 | 70 | 288 | 2.6 | 7.0 | 0.00 | 0.00 | 0.00 | 38 | 1014.2 |